GW3739 Weather Reports


time (UTC)temp
F
wind
direction
speed
knots
gust
knots
rain 1hr
in
rain 24hr
in
rain mn
in
humidity
%
barometer
mb
20260906103404 68 223 0.0 9.6 0.00 0.00 0.00 88 1015.8
20260906101532 69 205 0.0 9.6 0.00 0.00 0.00 88 1015.5
20260906100731 69 235 0.9 9.6 0.00 0.00 0.00 88 1015.6
20260906095930 69 273 0.0 9.6 0.00 0.00 0.00 88 1016.0
20260906095130 70 288 0.0 9.6 0.00 0.00 0.00 88 1015.9
20260906093814 70 321 0.0 9.6 0.00 0.00 0.00 89 1015.6
20260906093013 70 243 0.0 9.6 0.00 0.00 0.00 89 1013.4
20260906092213 70 194 0.0 9.6 0.00 0.00 0.00 90 1015.6
20260906091412 71 181 0.0 9.6 0.00 0.00 0.00 90 1015.6
20260906090611 71 181 0.0 9.6 0.00 0.00 0.00 91 1015.4
20260906085810 71 202 0.0 9.6 0.00 0.00 0.00 91 1013.2
20260906085009 71 170 0.9 9.6 0.00 0.00 0.00 91 1015.5
20260906083653 71 317 0.0 9.6 0.00 0.00 0.00 91 1015.8
20260906082336 71 232 0.0 9.6 0.00 0.00 0.00 92 1013.1
20260906081536 71 329 0.0 9.6 0.00 0.00 0.00 92 1015.2
20260906080735 71 292 0.0 9.6 0.00 0.00 0.00 92 1014.9
20260906075934 71 228 0.0 9.6 0.00 0.00 0.00 91 1015.2
20260906075133 71 38 0.0 9.6 0.00 0.00 0.00 91 1015.0
20260906073300 71 257 0.0 9.6 0.00 0.00 0.00 91 1014.4
20260906072459 71 257 0.0 9.6 0.00 0.00 0.00 91 1014.9
20260906071658 71 252 0.0 9.6 0.00 0.00 0.00 91 1015.0
20260906070857 71 329 0.0 9.6 0.00 0.00 0.00 91 1015.3
20260906065541 71 0 0.0 9.6 0.00 0.00 0.00 90 1015.8
20260906064739 71 357 0.0 9.6 0.00 0.00 0.00 90 1015.5
20260906063938 72 336 0.0 9.6 0.00 0.00 0.00 90 1015.6
20260906063138 72 0 0.0 9.6 0.00 0.00 0.00 89 1015.4
20260906062339 72 357 0.0 9.6 0.00 0.00 0.00 89 1015.2
20260906061538 72 334 0.0 9.6 0.00 0.00 0.00 89 1015.4
20260906060222 73 336 0.0 9.6 0.00 0.00 0.00 89 1012.8
20260906055421 72 132 0.0 9.6 0.00 0.00 0.00 89 1015.0
20260906054620 72 358 0.0 9.6 0.00 0.00 0.00 89 1015.2
20260906053303 72 136 0.0 9.6 0.00 0.00 0.00 89 1015.0
20260906052504 72 112 0.0 9.6 0.00 0.00 0.00 89 1014.2
20260906051704 72 115 0.0 9.6 0.00 0.00 0.00 89 1015.0
20260906050904 72 115 0.0 9.6 0.00 0.00 0.00 88 1014.7
20260906044747 72 245 0.0 9.6 0.00 0.00 0.00 88 1014.7
20260906043946 72 236 0.0 9.6 0.00 0.00 0.00 88 1014.9
20260906043145 73 185 0.0 9.6 0.00 0.00 0.00 87 1012.7
20260906041828 73 241 0.0 9.6 0.00 0.00 0.00 87 1014.9
20260906041028 73 198 0.0 9.6 0.00 0.00 0.00 87 1012.4
20260906040228 73 187 0.0 9.6 0.00 0.00 0.00 87 1014.8
20260906034913 72 211 0.0 9.6 0.00 0.00 0.00 87 1014.6
20260906034113 73 129 0.0 9.6 0.00 0.00 0.00 87 1014.2
20260906033312 73 220 0.0 9.6 0.00 0.00 0.00 87 1014.2
20260906032511 73 133 0.9 9.6 0.00 0.00 0.00 86 1014.6
20260906031711 73 143 0.0 9.6 0.00 0.00 0.00 86 1014.3
20260906030910 73 110 0.0 9.6 0.00 0.00 0.00 86 1014.8
20260906030110 74 261 0.0 9.6 0.00 0.00 0.00 85 1014.4
20260906025310 74 125 0.9 9.6 0.00 0.00 0.00 85 1014.5
20260906024510 74 158 0.0 9.6 0.00 0.00 0.00 85 1014.5
20260906023710 74 144 0.0 9.6 0.00 0.00 0.00 85 1014.4
20260906022909 75 92 0.0 9.6 0.00 0.00 0.00 84 1013.9
20260906022108 75 227 0.0 9.6 0.00 0.00 0.00 84 1012.0
20260906015719 76 228 0.9 9.6 0.00 0.00 0.00 83 1014.1
20260906014919 77 141 0.0 9.6 0.00 0.00 0.00 82 1011.6
20260906014118 77 180 0.9 9.6 0.00 0.00 0.00 81 1013.6
20260906013318 78 150 0.0 9.6 0.00 0.00 0.00 80 1012.9
20260906012517 78 157 0.0 9.6 0.00 0.00 0.00 79 1013.1
20260906011717 79 115 0.9 9.6 0.00 0.00 0.00 78 1013.0
20260906010916 79 156 0.0 9.6 0.00 0.00 0.00 78 1013.1
20260906010115 80 182 0.0 9.6 0.00 0.00 0.00 78 1013.8
20260906005314 80 184 0.0 9.6 0.00 0.00 0.00 77 1010.9
20260906004513 81 253 0.0 9.6 0.00 0.00 0.00 76 1013.2
20260906003713 81 252 0.0 9.6 0.00 0.00 0.00 76 1013.1
20260906002913 82 115 0.0 9.6 0.00 0.00 0.00 75 1012.9
20260906002112 82 103 0.9 9.6 0.00 0.00 0.00 74 1012.3
20260906001311 83 335 1.7 9.6 0.00 0.00 0.00 74 1012.7
20260906000511 83 349 0.9 9.6 0.00 0.00 0.00 73 1010.5
20260905235711 84 335 0.9 9.6 0.00 0.00 0.00 73 1013.1
20260905233838 85 336 0.9 9.6 0.00 0.00 0.00 72 1012.8
20260905233037 86 354 0.9 9.6 0.00 0.00 0.00 73 1012.8
20260905232237 86 279 0.9 9.6 0.00 0.00 0.00 73 1012.5
20260905231437 87 336 1.7 9.6 0.00 0.00 0.00 73 1012.6
20260905230636 88 322 0.9 9.6 0.00 0.00 0.00 72 1012.6
20260905225319 89 282 0.9 9.6 0.00 0.00 0.00 70 1012.2
20260905224518 89 277 1.7 9.6 0.00 0.00 0.00 70 1012.2
20260905223717 90 315 1.7 9.6 0.00 0.00 0.00 70 1012.0
20260905222400 90 308 1.7 9.6 0.00 0.00 0.00 68 1009.9
20260905221600 92 283 2.6 9.6 0.00 0.00 0.00 66 1011.8
20260905220759 91 341 0.0 9.6 0.00 0.00 0.00 69 1011.9
20260905214926 93 302 0.9 9.6 0.00 0.00 0.00 66 1011.6
20260905214125 92 318 1.7 9.6 0.00 0.00 0.00 65 1011.9
20260905213324 93 298 0.9 9.6 0.00 0.00 0.00 67 1011.6
20260905212523 92 340 0.9 9.6 0.00 0.00 0.00 66 1011.6
20260905211722 92 304 0.9 9.6 0.00 0.00 0.00 66 1011.7
20260905210922 92 317 0.9 9.6 0.00 0.00 0.00 68 1011.7
20260905210122 93 299 0.9 9.6 0.00 0.00 0.00 66 1010.9
20260905205322 94 345 0.9 9.6 0.00 0.00 0.00 65 1012.0
20260905204522 94 334 1.7 9.6 0.00 0.00 0.00 63 1012.5
20260905203722 93 305 1.7 9.6 0.00 0.00 0.00 64 1012.0
20260905202923 94 296 0.9 9.6 0.00 0.00 0.00 63 1012.3
20260905202121 94 339 1.7 9.6 0.00 0.00 0.00 63 1012.2
20260905200248 94 342 0.9 9.6 0.00 0.00 0.00 63 1011.8
20260905195448 93 308 0.9 9.6 0.00 0.00 0.00 67 1010.1
20260905194131 92 303 0.0 9.6 0.00 0.00 0.00 68 1010.6
20260905193332 93 313 0.0 9.6 0.00 0.00 0.00 67 1012.8
20260905192014 92 325 0.9 9.6 0.00 0.00 0.00 67 1010.4
20260905191213 92 316 0.0 9.6 0.00 0.00 0.00 70 1013.1
20260905190412 90 328 0.0 9.6 0.00 0.00 0.00 72 1010.4
20260905185058 90 305 0.0 9.6 0.00 0.00 0.00 72 1012.7
20260905184258 92 343 0.0 9.6 0.00 0.00 0.00 69 1013.0
20260905183457 93 329 0.0 9.6 0.00 0.00 0.00 70 1013.2
20260905182655 94 269 0.0 9.6 0.00 0.00 0.00 64 1013.2
20260905181854 93 168 0.0 9.6 0.00 0.00 0.00 67 1013.3
20260905181054 93 303 0.0 9.6 0.00 0.00 0.00 69 1013.2
20260905175736 94 119 1.7 9.6 0.00 0.00 0.00 67 1011.0
20260905174936 94 126 0.0 9.6 0.00 0.00 0.00 67 1013.4
20260905174135 93 340 0.0 9.6 0.00 0.00 0.00 69 1013.7
20260905172305 91 213 0.0 9.6 0.00 0.00 0.00 68 1013.9
20260905171502 92 306 0.9 9.6 0.00 0.00 0.00 67 1013.8
20260905170702 92 332 0.0 9.6 0.00 0.00 0.00 69 1011.9
20260905165901 91 274 0.0 9.6 0.00 0.00 0.00 66 1011.6
20260905165057 91 336 0.9 9.6 0.00 0.00 0.00 70 1013.7
20260905163740 91 41 0.0 9.6 0.00 0.00 0.00 71 1013.9
20260905162939 90 103 0.0 9.6 0.00 0.00 0.00 73 1013.1
20260905162139 90 85 0.9 9.6 0.00 0.00 0.00 74 1011.4
20260905161338 89 217 0.0 9.6 0.00 0.00 0.00 75 1013.6
20260905160537 88 141 0.0 9.6 0.00 0.00 0.00 78 1013.8
20260905155736 87 185 0.0 9.6 0.00 0.00 0.00 76 1014.2
20260905154419 85 133 0.0 9.6 0.00 0.00 0.00 82 1014.0
20260905153102 84 13 0.0 9.6 0.00 0.00 0.00 81 1011.5
20260905151745 85 114 0.0 9.6 0.00 0.00 0.00 78 1011.6
20260905150945 86 64 0.0 9.6 0.00 0.00 0.00 77 1011.7
20260905150144 85 86 0.9 9.6 0.00 0.00 0.00 78 1011.8
20260905145343 84 86 0.9 9.6 0.00 0.00 0.00 79 1014.4
20260905144543 84 89 0.0 9.6 0.00 0.00 0.00 80 1011.7
20260905143742 84 108 1.7 9.6 0.00 0.00 0.00 79 1014.1
20260905142941 87 92 0.9 9.6 0.00 0.00 0.00 76 1014.0
20260905142140 88 138 0.0 9.6 0.00 0.00 0.00 74 1011.3
20260905140823 89 227 0.0 9.6 0.00 0.00 0.00 72 1012.0
20260905140022 88 202 0.0 9.6 0.00 0.00 0.00 75 1011.3
20260905135221 87 202 0.0 9.6 0.00 0.00 0.00 76 1013.5
20260905133904 86 202 0.0 9.6 0.00 0.00 0.00 77 1013.9
20260905133103 85 202 0.0 9.6 0.00 0.00 0.00 81 1013.4
20260905132305 83 202 0.0 9.6 0.00 0.00 0.00 83 1013.5
20260905131503 82 202 0.0 9.6 0.00 0.00 0.00 85 1011.4
20260905130703 81 203 0.0 9.6 0.00 0.00 0.00 86 1011.4
20260905125903 80 209 0.0 9.6 0.00 0.00 0.00 87 1014.0
20260905125103 79 210 0.0 9.6 0.00 0.00 0.00 88 1013.7
20260905123747 77 209 0.0 9.6 0.00 0.00 0.00 90 1014.0
20260905122946 76 205 0.0 9.6 0.00 0.00 0.00 91 1013.5
20260905122146 75 163 0.0 9.6 0.00 0.00 0.00 91 1013.3
20260905121345 75 228 0.0 9.6 0.00 0.00 0.00 92 1013.4
20260905120544 75 234 0.0 9.6 0.00 0.00 0.00 92 1011.1
20260905115744 75 233 0.0 9.6 0.00 0.00 0.00 92 1011.4
20260905114943 75 231 0.0 9.6 0.00 0.00 0.00 92 1013.4
20260905113628 75 229 0.0 9.6 0.00 0.00 0.00 92 1013.6
20260905112828 75 231 0.0 9.6 0.00 0.00 0.00 93 1013.0
20260905112027 74 230 0.0 9.6 0.00 0.00 0.00 93 1013.3
20260905111227 74 229 0.0 9.6 0.00 0.00 0.00 93 1013.1
20260905105912 74 230 0.0 9.6 0.00 0.00 0.00 93 1013.7
20260905105111 74 229 0.0 9.6 0.00 0.00 0.00 93 1013.5
20260905104311 74 230 0.0 9.6 0.00 0.00 0.00 93 1013.7